Location: Vihti�l�
(61.3833°N, 23.0667°E)
Time: 04:18:36
(UTC+00:00)

Cosmos 2219 - Pass Details

Date: 29 November 2020
Orbit: 833 x 860 km, 71.1° (Epoch: 19 January)

Event Time Altitude Azimuth Distance (km) Brightness Sun altitude
Exits shadow 02:28:58 51° 25° (NNE) 1,085 3.8 -31.5°
Drops below altitude 10° 02:33:16 10° 42° (NE) 2,511 6.3 -31.0°
Sets 02:35:45 0° 45° (NE) 3,450 7.2 -30.7°
